Regional Weather Roundup
Issued by NWS Green Bay, WI

Home | Current Version | Previous Version | Graphics & Text | Print | Product List | Glossary Off
Versions: 1 2 3 4 5 6 7 8 9 10 11 12 13 14 15 16 17 18 19 20 21 22 23 24 25 26 27 28 29 30 31 32 33 34 35 36 37 38 39 40 41 42 43 44 45 46 47 48 49 50

000
ASUS43 KGRB 181710
RWRGRB

NORTH-CENTRAL AND NORTHEAST WISCONSIN REGIONAL WEATHER ROUNDUP
NATIONAL WEATHER SERVICE GREEN BAY WI
1200 PM CDT FRI APR 18 2014

WIZ005-009-010>012-018-019-181800-
NORTH CENTRAL WISCONSIN

CITY           SKY/WX    TMP DP  RH WIND       PRES   REMARKS
IRONWOOD       PTSUNNY   36  21  55 NW3       30.37S
MANITOWISH WTR PTSUNNY   34  23  63 NE3       30.37S
ARBOR VITAE    MOSUNNY   43  25  50 NW7       30.37S
EAGLE RIVER    PTSUNNY   34  21  58 NW3       30.36S
LAND O LAKES   PTSUNNY   34  22  62 NW7       30.38R
RHINELANDER    MOSUNNY   36  22  56 NW7       30.37R
PHILLIPS       SUNNY     36  21  54 N3        30.36F
ANTIGO         SUNNY     37  24  59 N3        30.36S
TOMAHAWK       MOSUNNY   38  19  45 CALM      30.36F
MERRILL        MOSUNNY   40  20  45 CALM      30.36F
$$

WIZ013-073-181800-
NORTHEAST WISCONSIN

CITY           SKY/WX    TMP DP  RH WIND       PRES   REMARKS
IRON MOUNTAIN  CLOUDY    36  23  59 N9        30.36R
MARINETTE      PTSUNNY   39  25  56 CALM      30.37F
OCONTO         MOSUNNY   40  26  56 W3        30.38F
$$

WIZ017-030-035>037-045-181800-
CENTRAL WISCONSIN

CITY           SKY/WX    TMP DP  RH WIND       PRES   REMARKS
MEDFORD        MOSUNNY   38  22  53 N6        30.36F
WAUSAU         MOSUNNY   41  23  48 VRB5      30.35F
MOSINEE        SUNNY     41  25  52 N12       30.37F
MARSHFIELD     SUNNY     43  26  51 VRB5      30.36F
WISC RAPIDS    SUNNY     45  24  43 N10       30.37F
STEVENS POINT  SUNNY     41  21  44 N7        30.36F
WAUPACA        SUNNY     46  21  36 CALM      30.37F
SHAWANO        SUNNY     45  27  50 NE7       30.37F
CLINTONVILLE   SUNNY     43  25  49 NW8       30.36F
$$

WIZ038-039-048-051-181800-
FOX VALLEY

CITY           SKY/WX    TMP DP  RH WIND       PRES   REMARKS
NWS GREEN BAY  NOT AVBL
APPLETON       MOSUNNY   43  27  52 N8        30.38S
OSHKOSH        SUNNY     42  28  57 E6        30.37F
FOND DU LAC    SUNNY     42  29  59 VRB6      30.38S
$$

WIZ022-050-052-181800-
EAST CENTRAL WISCONSIN

CITY           SKY/WX    TMP DP  RH WIND       PRES   REMARKS
STURGEON BAY   CLOUDY    37  25  60 NW9       30.39S
MANITOWOC      CLOUDY    41  29  62 NW8       30.38F
SHEBOYGAN      PTSUNNY   44  30  57 MISG      30.37S
$$

LMZ563-521-522-541>543-181800-
LAKESHORE

STATION/POSITION TIME  TEMP    WIND        PRES    VSBY  WAVE
                       AIR SEA DIR/SP/G                  HT/PER
                 (UTC) (F)     (DEG/KT/KT) (MB)    (MI)  (FT/S)
SHEBOYGAN LKSHOR 1700   36      60/ 11/ 12 1029.5F
KEWAUNEE LKSHORE 1700   38     330/  3/  7 1029.3S
NORTHPORT PIER   1700   36     310/  6/  9 1028.8R
SISTER BAY LKSHO 1700          270/  5/  6   N/A
MENOMINEE LKSHOR 1700   36     360/  6/  9 1029.2S
$$



USA.gov is the U.S. government's official web portal to all federal, state and local government web resources and services.